This is the latest recevied weather packets stored in our database for station/object KC1TEM-13. If no packets are shown the sender has not sent any weather packets the latest 10 day(s).
| Time | Temp. | Humidity | Pressure | Rain* | Wind** | Luminosity | Snow |
|---|---|---|---|---|---|---|---|
| 1777556735 | 8.33° C | 95% | 1008.6 hPa | 0 mm | - | 66 W/m² | - |
| 1777556432 | 8.33° C | 94% | 1008.6 hPa | 0 mm | - | 78 W/m² | - |
| 1777556131 | 8.33° C | 95% | 1008.6 hPa | 0 mm | - | 97 W/m² | - |
| 1777555220 | 8.33° C | 96% | 1008.4 hPa | 0 mm | - | 115 W/m² | - |
| 1777554917 | 8.33° C | 96% | 1008.5 hPa | 0 mm | - | 109 W/m² | - |
| 1777554613 | 8.33° C | 96% | 1008.5 hPa | 0 mm | - | 131 W/m² | - |
| 1777554310 | 7.78° C | 96% | 1008.5 hPa | 0 mm | - | 159 W/m² | - |
| 1777554008 | 7.78° C | 97% | 1008.8 hPa | 0 mm | - | 113 W/m² | - |
| 1777552189 | 7.22° C | 97% | 1009 hPa | 0 mm | - | 51 W/m² | - |
| 1777550370 | 7.22° C | 97% | 1008.8 hPa | 0 mm | - | 63 W/m² | - |
| 1777550066 | 7.22° C | 98% | 1008.6 hPa | 0 mm | - | 52 W/m² | - |
| 1777548852 | 6.67° C | 98% | 1008.3 hPa | 0.51 mm | - | 46 W/m² | - |
| 1777548246 | 6.67° C | 98% | 1008.5 hPa | 0 mm | - | 42 W/m² | - |
| 1777547943 | 6.67° C | 98% | 1008.7 hPa | 0 mm | - | 34 W/m² | - |
| 1777547639 | 6.67° C | 98% | 1008.7 hPa | 0 mm | - | 32 W/m² | - |
| 1777547335 | 6.67° C | 98% | 1008.8 hPa | 0 mm | - | 30 W/m² | - |
| 1777547033 | 6.67° C | 98% | 1008.9 hPa | 0.51 mm | - | 29 W/m² | - |
| 1777546730 | 6.67° C | 98% | 1009 hPa | 0 mm | - | 24 W/m² | - |
| 1777546427 | 6.67° C | 98% | 1009 hPa | 0 mm | - | 27 W/m² | - |
| 1777545516 | 6.67° C | 98% | 1009 hPa | 0.51 mm | - | 20 W/m² | - |
| 1777544911 | 6.67° C | 98% | 1008.8 hPa | 0 mm | - | 18 W/m² | - |
| 1777544607 | 6.67° C | 98% | 1008.7 hPa | 0.51 mm | - | 11 W/m² | - |
| 1777544304 | 6.67° C | 98% | 1008.6 hPa | 0.51 mm | - | 9 W/m² | - |
| 1777544001 | 6.67° C | 98% | 1008.6 hPa | 0 mm | - | 9 W/m² | - |
| 1777543698 | 6.67° C | 98% | 1008.6 hPa | 0.51 mm | - | 7 W/m² | - |
* Rain latest hour (hover to see other rain measurements)
** Current wind speed in m/s (hover to see current wind gust speed)